Evanston, WY

2:04 PM MDT on June 26, 2017 (GMT -0600)
Evanston-Uinta County Burns

Weather History for KEVW - June, 2013

Change the Weather History Date:

Friday, June 14, 2013

  Actual Average Record
Temperature  
Mean Temperature 52 °F 57 °F  
Max Temperature 67 °F 71 °F 80 °F (2002)
Min Temperature 36 °F 44 °F 30 °F (2001)
Degree Days  
Heating Degree Days 13 8  
Month to date heating degree days 71 142  
Since 1 June heating degree days 71 142  
Since 1 July heating degree days 7962 8484  
Cooling Degree Days 0 0  
Month to date cooling degree days 9 0  
Year to date cooling degree days 9 1  
Since 1 June cooling degree days 9 0  
Growing Degree Days 2 (Base 50)    
Moisture  
Dew Point 25 °F    
Average Humidity 50    
Maximum Humidity 82    
Minimum Humidity 18    
Precipitation  
Precipitation 0.00 in 0.04 in 0.01 in (2006)
Month to date precipitation T 0.61  
Year to date precipitation 2.01 5.54  
Sea Level Pressure  
Sea Level Pressure 29.99 in    
Wind  
Wind Speed 8 mph (West)    
Max Wind Speed 16 mph    
Max Gust Speed 27 mph    
Visibility 10 miles    
Events      
T = Trace of Precipitation, MM = Missing Value Source: NWS Daily Summary

Daily Weather History Graph

Daily Weather History Graph

Search for Another Location

Airport or City:

Trip Planner

Search our weather history database for the weather conditions in past years. The results will help you decide how hot, cold, wet, or windy it might be!

Date:

Astronomy

Jun. 14, 2013 Rise Set
Actual Time 5:50 AM MDT 8:58 PM MDT
Civil Twilight 5:16 AM MDT 9:32 PM MDT
Nautical Twilight 4:33 AM MDT 10:15 PM MDT
Astronomical Twilight 3:42 AM MDT 11:07 PM MDT
Moon 11:32 AM MDT (6/14) 12:03 AM MDT (6/14)
Length of Visible Light 16h 15m
Length of Day
15h 08m
Waxing Crescent, 31% of the Moon is Illuminated
Jun 14
Waxing Crescent
Jun 16
First Quarter
Jun 23
Full
Jun 29
Last Quarter
Jul 8
New

Hourly Weather History & Observations

Time (MDT) Temp. Windchill Dew Point Humidity Pressure Visibility Wind Dir Wind Speed Gust Speed Precip Events Conditions
12:53 AM 46.9 °F - 34.0 °F 61% 29.90 in 10.0 mi North 3.5 mph - N/A   Clear
1:53 AM 46.9 °F - 34.0 °F 61% 29.91 in 10.0 mi SSE 3.5 mph - N/A   Clear
2:53 AM 44.1 °F 40.8 °F 33.1 °F 65% 29.92 in 10.0 mi SE 5.8 mph - N/A   Clear
3:53 AM 42.1 °F 40.2 °F 33.1 °F 70% 29.93 in 10.0 mi SE 3.5 mph - N/A   Clear
4:53 AM 44.1 °F - 33.1 °F 65% 29.93 in 10.0 mi Calm Calm - N/A   Clear
5:53 AM 39.0 °F 34.8 °F 32.0 °F 76% 29.96 in 10.0 mi SSE 5.8 mph - N/A   Clear
6:53 AM 43.0 °F - 33.1 °F 68% 29.99 in 10.0 mi Calm Calm - N/A   Clear
7:53 AM 46.0 °F - 35.1 °F 66% 30.01 in 10.0 mi Calm Calm - N/A   Clear
8:53 AM 50.0 °F - 34.0 °F 54% 30.04 in 10.0 mi WSW 5.8 mph - N/A   Clear
9:53 AM 55.9 °F - 28.9 °F 36% 30.04 in 10.0 mi West 12.7 mph 19.6 mph N/A   Clear
10:53 AM 57.9 °F - 28.0 °F 32% 30.04 in 10.0 mi SW 11.5 mph 19.6 mph N/A   Clear
11:53 AM 60.1 °F - 23.0 °F 24% 30.04 in 10.0 mi WSW 12.7 mph 20.7 mph N/A   Clear
12:53 PM 63.0 °F - 21.0 °F 20% 30.02 in 10.0 mi SW 11.5 mph 21.9 mph N/A   Clear
1:53 PM 64.9 °F - 23.0 °F 20% 30.00 in 10.0 mi West 16.1 mph 25.3 mph N/A   Clear
2:53 PM 64.9 °F - 21.0 °F 19% 30.00 in 10.0 mi West 23.0 mph 28.8 mph N/A   Clear
3:53 PM 64.9 °F - 21.0 °F 19% 30.00 in 10.0 mi WSW 15.0 mph 26.5 mph N/A   Clear
4:53 PM 66.0 °F - 21.9 °F 19% 29.99 in 10.0 mi WNW 15.0 mph 26.5 mph N/A   Clear
5:53 PM 66.0 °F - 16.0 °F 15% 30.00 in 10.0 mi West 12.7 mph - N/A   Clear
6:53 PM 60.1 °F - 10.9 °F 14% 30.01 in 10.0 mi WNW 11.5 mph - N/A   Clear
7:53 PM 57.0 °F - 10.0 °F 15% 30.02 in 10.0 mi NNW 4.6 mph - N/A   Clear
8:53 PM 53.1 °F - 18.0 °F 25% 30.03 in 10.0 mi WNW 6.9 mph - N/A   Clear
9:53 PM 54.0 °F - 19.9 °F 26% 30.02 in 10.0 mi NNW 3.5 mph - N/A   Clear
10:53 PM 51.1 °F - 19.0 °F 28% 30.04 in 10.0 mi NNE 8.1 mph - N/A   Clear
11:53 PM 48.0 °F - 21.0 °F 34% 30.03 in 10.0 mi ENE 5.8 mph - N/A   Clear